Dewpoint
49 50 50 50 50 50 50 51 51 50 48 43 38 30 28 27 19 28 33 32 25 20 20 23 25 20 24 27 24 25 24 22 24 22 24 19 22 22 22 21 18 18 19 19 18 17 11 18 15 17 16 12 16 15 22 23 22 22 16 19 19 26 -4 -5 -0 -2 6 5 12 14 15 14 10 11 10 4 -2 0 0 -5 -9 -6 -6 -4 -11 -11 -3
50 50 50 49 49 50 50 50 51 50 48 38 33 24 23 25 21 23 31 32 31 21 16 15 15 19 22 24 23 25 25 24 24 22 23 22 19 21 21 20 20 19 22 19 16 19 2 10 16 14 17 9 18 20 21 21 19 7 1 1 11 -2 1 -3 -10 -7 -3 -2 1 8 8 13 9 6 9 8 5 3 -5 -2 -3 -3 -8 -1 -7 -8 -5
50 50 50 49 49 49 49 50 51 50 49 44 35 21 24 23 26 27 26 28 25 16 22 20 20 21 21 20 19 21 23 25 25 23 22 24 20 17 18 20 21 20 21 20 20 18 11 11 12 12 14 11 24 23 20 20 19 23 22 28 22 6 7 -5 -12 -17 -17 -15 -14 -10 -6 -2 6 12 12 10 4 4 -0 -3 1 -3 -2 -4 -11 -9 -4
50 50 50 49 49 49 49 50 50 50 48 44 39 32 23 23 11 19 20 24 26 27 25 24 21 20 15 17 19 21 20 22 25 22 20 24 23 20 20 22 22 21 19 17 18 16 19 10 8 11 13 13 18 23 22 21 19 23 29 26 20 8 12 -6 -4 -6 -7 -4 -4 -5 8 7 1 1 9 7 6 -1 -5 -3 -3 -2 -5 -7 -3 -3 -4
50 50 49 49 49 49 49 49 50 50 49 46 33 28 24 25 19 18 13 20 22 23 25 23 23 17 21 15 18 15 20 20 20 23 17 21 23 23 23 23 18 18 19 18 18 19 18 17 9 9 9 9 15 18 22 22 23 29 28 24 7 -2 -5 7 -1 -2 -1 -3 -5 -6 9 -2 -2 -2 2 6 7 5 2 -1 -2 1 -8 -5 -0 -1 -3
49 49 49 48 49 49 49 50 50 49 49 46 30 23 24 20 19 23 22 23 14 21 17 24 24 23 23 18 22 20 19 20 15 23 23 24 22 20 20 23 23 21 20 18 8 16 16 12 5 13 10 13 12 13 23 23 27 26 15 12 -1 -8 -10 -4 3 2 5 4 3 2 1 3 5 5 3 3 8 5 3 1 3 -2 -7 -6 -7 -2 -3
48 47 48 48 48 47 48 50 50 49 47 42 27 22 20 26 24 23 24 19 20 22 22 24 24 24 23 25 22 20 19 19 21 22 23 22 21 20 10 19 22 23 23 19 12 19 3 0 7 9 6 8 10 2 2 19 13 16 10 12 -0 3 -2 1 1 5 7 6 5 3 3 5 5 5 5 5 7 8 8 7 5 2 1 0 1 2 1
48 47 47 48 48 47 48 49 50 50 47 37 31 27 22 19 21 17 23 23 20 20 21 22 22 21 24 18 21 22 21 21 23 23 23 17 20 24 22 22 23 23 22 20 12 17 12 8 7 8 8 8 9 4 4 -1 4 11 8 6 5 -7 -4 12 5 -2 1 1 2 7 7 6 4 4 4 4 6 7 8 7 8 7 6 7 7 6 7
48 47 47 47 48 47 48 49 49 50 44 29 31 26 28 25 25 24 21 20 20 23 21 22 21 18 22 20 22 24 22 20 22 24 25 23 21 24 21 23 24 23 22 22 21 22 22 19 16 17 12 4 14 7 5 3 0 4 3 1 1 -8 -2 -3 -5 -6 -2 -4 4 5 0 3 3 3 3 3 4 2 6 5 8 6 6 7 3 2 5
47 48 47 48 48 47 48 48 48 49 44 29 29 25 26 27 27 28 24 19 24 19 21 21 21 15 20 23 23 22 21 22 23 19 23 25 25 25 24 24 23 21 18 16 22 24 23 23 22 21 21 20 18 14 10 6 4 -2 2 3 2 -4 -5 -7 -7 -7 -6 -6 -2 -1 -1 -3 -3 -2 -1 0 2 4 7 7 8 9 7 1 -1 3 2
46 47 48 48 48 49 47 48 48 48 34 28 27 25 30 27 23 25 24 20 16 20 19 20 21 21 24 25 23 23 24 24 24 8 7 25 24 26 25 23 21 18 17 19 26 25 25 23 22 19 16 13 10 9 14 15 10 6 4 5 5 2 -2 -4 -2 -9 -8 -5 -2 -2 -8 -10 -7 0 3 2 -2 2 2 2 3 6 7 5 4 3 3
46 46 47 48 49 49 47 47 46 44 42 32 34 33 33 31 28 26 23 21 16 18 20 17 21 23 24 24 24 23 23 23 24 21 17 23 25 25 24 23 20 14 21 24 23 22 22 23 20 18 18 17 16 18 16 12 11 19 6 2 -1 5 -1 -3 -8 -7 -3 -4 -3 -5 -16 -9 -2 5 8 8 6 5 3 2 3 5 6 7 6 7 6
47 47 47 48 48 48 46 46 47 45 42 36 35 33 33 33 28 24 23 21 16 19 16 19 19 23 23 24 24 23 24 24 25 25 23 25 24 25 27 25 22 22 27 25 24 21 17 14 17 16 14 18 18 18 16 14 14 15 9 3 3 -3 -4 -7 -3 -7 -6 -9 -12 -16 -8 -5 -2 1 9 9 7 6 3 2 3 3 4 6 5 6 6
47 47 47 47 46 46 46 45 45 45 44 40 36 31 31 33 25 24 24 22 21 15 15 21 19 21 22 22 23 23 22 21 20 23 20 25 25 24 26 28 27 28 27 25 22 15 12 10 3 4 4 5 5 5 10 16 15 15 13 5 0 1 -6 -7 -5 -4 -10 -9 -12 -5 -6 -6 -6 -1 7 7 2 3 -0 -2 -0 -0 2 4 4 3 3
48 48 46 45 45 46 46 47 44 42 42 40 36 34 35 34 30 25 25 24 22 17 16 19 21 20 22 22 21 19 15 19 18 19 23 26 25 25 26 27 27 26 24 21 17 16 12 7 -1 -0 -0 -3 -11 -9 3 8 11 18 16 6 1 -1 -3 1 -6 -6 -6 -8 -4 -6 -11 -14 -4 -2 5 5 7 5 2 -1 1 -0 1 1 1 0 1
48 48 46 45 45 46 46 45 47 45 41 38 32 32 32 33 30 26 24 23 21 14 19 23 24 23 22 22 21 18 14 15 13 18 17 19 24 25 26 26 25 25 23 19 15 6 3 -0 -5 -7 -8 -8 0 -1 -4 3 0 7 9 7 3 4 -3 -1 -6 -4 -6 -10 -11 -13 -13 -6 -5 -5 4 3 2 1 1 -3 -3 1 0 0 0 0 0
48 48 48 46 46 45 45 45 44 45 44 41 31 29 29 32 30 27 23 24 25 16 24 26 26 23 22 21 21 19 20 13 18 10 10 13 22 25 24 25 24 25 23 19 13 9 8 4 -0 -4 -0 1 0 -3 0 1 1 -2 5 7 6 4 -1 -4 -6 -10 -7 -9 -9 -6 -10 -4 -4 -1 5 3 4 4 2 -6 -4 2 3 2 1 1 1
47 46 46 46 46 46 45 45 44 42 41 38 29 27 27 30 31 28 27 25 23 19 23 27 25 21 19 20 20 22 22 18 19 19 17 20 23 24 23 25 20 23 25 12 11 5 4 4 0 -2 -1 4 5 0 -5 -3 -4 -5 -4 3 1 -2 -1 -2 1 -3 -1 3 -4 -9 -1 2 5 5 5 5 3 -2 -9 -7 -1 5 4 5 4 3 3
45 45 45 46 46 46 46 44 44 46 43 41 30 28 26 29 31 28 26 25 24 20 24 26 27 26 26 28 25 25 22 19 19 13 11 9 13 22 24 24 23 10 19 11 9 5 4 2 5 -2 -1 3 6 -3 2 -3 -4 -3 -3 -3 -4 -5 -5 -1 -7 -5 -2 -1 -2 -0 0 1 7 6 5 5 -3 -10 -5 1 2 4 5 5 5 4 5
44 45 45 45 45 45 46 45 43 41 43 43 31 24 25 29 30 29 25 22 20 23 24 26 27 26 27 25 21 20 22 20 21 15 10 5 16 20 14 8 19 18 15 12 5 7 5 3 1 4 1 -3 6 5 -1 1 1 -1 -1 -4 -3 0 -6 -4 -7 -2 -5 -6 -9 -6 -8 -3 6 5 5 4 -5 1 -0 1 4 5 2 3 5 5 4
45 45 45 45 45 45 44 45 44 43 40 41 34 24 23 28 30 29 28 27 26 23 19 24 26 27 26 25 25 25 22 18 20 15 18 17 21 13 1 -1 14 10 5 4 1 2 2 2 -1 3 8 3 1 3 1 -3 2 6 1 1 -1 1 -6 -6 -5 -1 -7 -10 -11 -7 2 1 5 0 -2 4 1 -0 0 -1 -3 0 2 2 3 4 5
45 45 45 45 45 45 45 44 43 43 43 42 39 24 22 25 29 30 30 28 24 21 22 25 26 26 28 27 27 27 28 28 27 25 22 16 20 19 16 14 18 14 13 12 7 5 7 3 4 4 1 2 5 6 1 -1 1 3 5 1 2 3 4 5 1 -0 -2 -4 -1 -1 1 4 5 2 -1 -1 1 4 2 1 -1 -2 -1 3 3 3 5
44 44 44 44 44 44 45 45 44 42 42 39 34 24 22 24 28 29 24 25 27 28 27 26 27 29 31 30 29 27 27 28 27 26 24 20 16 18 18 16 14 22 22 14 13 11 9 7 8 6 4 3 5 1 -0 6 -0 -2 -1 3 11 10 3 4 -2 5 4 3 2 2 1 4 5 5 4 2 2 2 2 1 0 0 1 2 3 3 4
43 43 43 43 44 44 43 44 44 43 44 42 34 26 27 28 28 27 25 27 24 20 17 24 16 12 22 23 28 27 27 27 29 26 27 26 16 12 18 22 24 22 21 21 18 10 8 6 8 3 -0 6 -1 0 -2 1 2 6 -0 5 1 5 1 0 0 4 -0 1 -1 -2 -0 -0 0 -0 2 5 5 4 3 2 2 1 2 3 4 4 4
43 43 43 43 43 43 43 43 43 43 44 40 34 34 32 29 29 29 24 17 15 18 10 10 14 21 26 26 27 26 28 28 28 27 26 25 23 19 17 21 24 20 19 22 14 14 9 8 7 5 2 10 8 4 7 -1 6 6 -1 8 1 7 2 0 1 1 0 0 1 1 1 0 1 1 0 0 0 -0 1 3 3 3 3 4 4 5 5
44 44 45 45 46 44 43 43 43 41 40 40 40 29 29 28 29 30 30 27 23 18 13 3 11 27 27 27 27 28 29 27 26 27 28 27 26 26 25 26 25 23 22 19 17 11 10 11 5 3 2 10 5 1 0 5 4 3 2 6 4 6 5 6 2 -0 0 1 1 1 2 2 1 2 1 1 1 0 0 -0 1 2 3 4 5 6 6
45 44 43 44 44 45 44 44 43 41 40 37 32 30 30 29 31 31 25 27 21 5 17 8 12 21 27 26 28 28 29 26 26 27 27 26 25 25 25 24 23 19 16 11 13 8 7 6 7 10 6 11 2 1 3 7 6 5 2 7 4 4 5 5 1 5 5 4 3 2 3 3 2 2 1 1 -0 -1 -1 -1 2 4 5 5 5 6 6
45 44 44 44 44 45 45 44 45 43 40 37 33 31 30 30 31 31 31 31 24 21 15 11 11 15 24 28 30 27 28 27 25 25 23 25 25 25 24 24 22 16 12 10 11 9 7 7 11 7 1 3 4 8 5 3 3 3 7 7 5 2 4 4 3 2 5 6 5 3 3 2 2 2 2 1 -1 -2 -1 -1 1 3 5 5 5 5 6
44 43 43 43 43 43 44 45 45 43 43 40 32 32 31 31 30 33 34 29 27 24 22 19 20 15 12 20 28 27 28 25 25 24 25 25 26 25 24 23 22 16 11 9 7 6 4 9 11 6 6 12 4 5 1 2 0 3 5 6 4 4 4 4 4 4 4 5 4 4 3 3 3 3 3 2 1 1 0 1 1 2 4 5 6 6 6
43 43 43 43 43 43 42 44 45 45 41 32 31 26 24 21 28 30 35 32 25 24 20 12 9 10 22 25 25 25 27 27 26 25 25 24 24 23 22 23 22 24 14 11 11 9 14 9 9 12 12 14 6 4 5 1 0 4 6 6 5 5 5 5 4 3 4 6 6 5 4 4 4 3 2 2 3 4 3 2 3 3 5 6 6 6 7
44 44 43 43 42 43 43 40 44 44 40 30 24 15 19 11 14 32 37 32 30 26 20 20 10 12 12 21 24 26 26 27 26 25 25 25 24 23 20 21 19 22 12 11 10 12 10 6 8 11 14 15 13 3 2 1 2 5 7 8 8 7 7 6 6 5 5 5 6 6 5 5 5 5 5 4 4 5 6 6 7 9 7 7 7 7 6
45 44 44 43 42 43 42 42 39 36 30 26 19 15 16 13 17 31 36 37 29 26 22 15 9 8 11 21 23 24 26 26 27 26 24 26 20 23 20 21 15 19 25 10 12 11 10 13 9 8 6 19 16 6 3 2 3 9 9 8 9 9 8 8 8 8 7 7 7 8 7 7 7 6 5 5 4 5 6 6 6 6 8 8 6 5 6
45 45 45 44 43 43 43 42 40 34 25 34 41 43 42 42 41 40 40 30 22 19 18 17 5 10 13 10 17 19 25 22 20 18 16 23 17 20 16 20 20 19 32 20 11 8 11 11 11 9 13 14 9 6 3 7 9 9 9 11 10 10 9 9 10 10 10 10 8 7 7 7 7 7 5 4 4 5 6 7 6 5 5 5 5 4 4
44 45 43 45 44 44 42 43 41 40 36 25 16 19 25 40 38 40 32 25 18 17 19 14 6 6 9 11 8 14 21 14 9 15 10 20 21 15 12 19 18 13 19 17 16 13 10 13 7 6 10 8 8 4 5 9 11 11 10 10 10 10 10 10 10 10 9 9 9 9 8 8 8 6 6 6 6 5 6 6 5 5 5 5 6 6 5
44 43 43 42 44 43 45 41 32 31 23 29 26 27 27 39 40 41 32 21 10 10 10 7 16 7 5 11 8 16 18 12 8 12 9 12 16 11 15 10 13 9 13 14 13 9 5 8 11 7 6 4 5 5 10 10 11 11 11 11 10 10 9 8 8 8 9 9 9 9 9 8 7 7 7 8 7 6 5 5 6 7 6 6 6 6 4
43 43 42 43 41 42 32 28 30 25 19 19 18 31 41 39 40 31 31 27 17 14 11 6 12 6 5 -1 2 8 17 12 12 11 10 10 12 15 12 8 7 12 15 10 6 9 5 12 9 6 3 4 8 10 10 11 11 11 10 10 10 9 9 9 9 9 9 9 9 9 8 7 7 8 8 8 8 7 7 6 6 7 7 8 8 8 6
42 42 42 40 33 27 22 18 29 24 18 21 31 40 40 38 29 28 28 21 19 22 15 10 9 9 9 10 12 15 13 9 13 9 8 9 8 10 7 9 11 18 12 9 10 9 9 14 5 2 4 7 10 12 11 11 11 10 9 9 10 10 10 9 10 10 9 9 9 9 8 8 8 9 8 8 8 8 7 7 8 8 8 8 8 8 8
42 41 28 25 21 18 16 19 20 23 37 36 37 26 23 26 17 18 21 16 11 27 14 16 10 11 11 6 4 17 12 10 11 8 7 5 13 7 7 9 12 16 5 3 5 14 7 6 6 4 7 10 11 11 11 11 11 10 10 10 10 9 9 9 9 9 10 8 7 8 8 7 6 6 6 7 7 7 8 9 9 11 10 10 10 10 7
38 29 25 23 17 16 18 19 30 36 34 34 28 18 15 16 12 9 8 11 12 11 11 11 8 11 9 5 10 22 13 7 7 5 5 11 9 8 6 3 6 7 0 -0 2 9 4 -1 2 1 7 8 8 7 9 10 11 11 11 11 11 11 11 10 10 10 9 8 7 8 7 7 8 7 8 7 8 8 9 10 11 11 11 11 11 9 8
24 19 18 18 16 18 30 32 37 31 31 18 18 11 3 11 8 -0 12 3 4 9 11 5 10 12 11 7 6 8 21 11 7 7 4 9 22 5 6 7 6 2 -1 -1 5 2 0 -1 -4 -2 5 8 9 8 9 9 9 9 10 10 9 9 9 9 9 8 8 7 8 8 9 10 11 10 9 9 10 10 10 10 11 11 11 11 9 8 7
27 23 20 17 24 26 28 30 24 21 15 8 5 3 4 -2 7 5 9 5 5 5 11 8 8 7 11 10 8 6 17 15 9 6 5 6 12 13 7 5 6 -0 -2 -2 4 -0 -2 -1 -5 0 8 11 10 9 9 9 10 11 11 11 10 10 9 8 8 8 8 8 9 10 11 13 13 12 12 11 10 11 11 11 11 10 11 10 8 7 7
28 21 21 27 30 30 23 20 18 8 4 10 -1 -4 3 -2 6 6 7 -1 0 8 9 8 4 6 9 13 12 10 10 8 8 8 5 4 17 6 5 2 -0 -2 -3 -1 -1 -2 -3 -4 -7 0 8 7 7 9 10 10 10 11 11 11 11 10 9 9 8 8 9 10 10 10 12 12 13 13 13 12 12 12 13 12 11 9 10 9 8 6 5
37 35 32 24 22 20 19 10 13 5 -2 -2 -5 -8 -2 -1 2 -2 0 7 10 5 6 11 14 18 15 12 10 10 9 21 15 9 6 4 18 8 -3 -4 -4 -3 0 -2 -3 -4 -4 -4 -5 5 7 7 8 9 9 10 11 11 12 12 11 10 9 9 9 9 11 12 13 13 14 13 13 14 13 12 10 8 8 8 9 11 10 8 7 6 5
29 27 18 19 14 12 11 -3 8 -2 -5 3 -4 -8 -4 1 15 4 1 10 9 5 11 7 9 11 10 11 7 10 12 16 23 7 7 4 1 -2 -4 -3 -3 1 1 -3 -3 -4 0 -2 5 8 7 6 7 9 10 12 12 12 12 13 12 12 13 13 13 13 14 13 13 13 12 11 10 11 9 6 6 8 9 8 7 7 6 6 6 6 4
18 18 13 6 4 9 -0 -6 4 -4 -8 -5 7 0 1 -4 12 6 8 15 10 12 11 10 10 8 7 8 7 12 17 7 15 7 3 1 -1 -2 -2 0 -2 -4 -3 -4 -7 -6 -5 1 8 9 9 9 10 11 13 13 13 14 14 14 15 16 16 15 15 15 14 14 13 13 12 12 11 11 10 10 9 7 6 9 8 4 5 5 5 4 4
15 10 7 1 -2 3 1 -5 0 -6 2 10 7 13 10 16 9 10 15 11 10 12 10 9 8 11 7 7 5 5 5 4 4 3 2 -1 -1 -1 0 0 -3 -4 -6 -7 -6 -3 3 9 11 11 10 10 11 14 15 16 17 17 17 16 16 16 17 17 17 16 15 14 14 13 12 11 10 10 10 11 9 7 6 6 4 4 4 3 4 5 4
15 16 13 5 0 3 2 -3 1 9 4 10 15 18 15 12 16 16 14 12 12 11 9 9 10 8 10 6 5 4 4 3 1 2 0 -0 -1 -1 2 -2 -3 -6 -5 -6 -5 -1 5 8 8 8 10 13 16 18 19 19 19 18 17 17 17 17 17 17 17 16 16 15 14 13 12 12 11 10 9 9 10 8 6 4 3 3 4 5 4 3 3
9 13 11 3 0 5 2 10 13 12 14 12 11 11 11 10 8 9 9 10 13 12 9 7 6 8 7 8 6 5 3 3 1 3 1 -1 -0 -3 -5 -5 -7 -8 -5 -4 3 8 9 9 11 12 14 17 19 20 20 19 19 19 18 18 18 18 18 18 17 16 15 14 13 13 12 11 11 10 9 9 8 9 5 5 3 1 2 2 1 2 2
17 9 7 5 7 9 10 14 10 10 19 12 7 8 9 8 12 16 10 10 10 9 11 8 7 6 5 6 2 2 1 3 -1 -1 -2 -3 -3 -5 -5 -5 -5 -3 4 4 8 9 8 9 15 19 20 22 22 21 20 19 19 19 19 19 19 19 18 17 17 16 15 14 12 11 11 10 9 9 8 6 6 8 6 3 2 1 1 2 2 3 3
11 10 10 8 6 17 12 10 8 11 17 17 12 12 10 9 10 12 10 12 9 8 9 11 13 9 5 1 0 -4 -2 -2 -1 -2 -4 -4 -5 -5 -5 -6 -3 0 4 6 10 10 13 17 20 21 23 23 22 21 20 19 19 21 21 20 19 18 17 17 16 15 14 13 11 10 8 8 8 8 8 8 9 6 3 1 1 0 0 -0 0 1 2
15 11 14 20 9 21 8 5 6 8 16 16 14 15 13 12 12 12 12 9 9 9 9 7 5 2 1 -1 -3 -2 -2 -1 -1 -2 -1 -2 -4 -6 -5 -2 5 8 8 9 12 14 17 20 21 20 22 23 21 21 21 21 21 21 21 19 19 17 17 16 14 14 12 12 9 6 8 8 9 8 8 5 4 2 2 1 -1 -0 -0 0 -1 1 1
10 8 9 18 14 16 15 13 12 15 17 14 13 13 15 9 13 13 13 14 9 8 7 6 3 1 -0 1 2 1 -1 -2 -2 -3 -3 1 -2 -2 -3 3 9 10 12 13 15 17 18 20 22 22 23 22 23 22 22 21 20 19 18 19 18 16 15 14 14 12 10 9 8 7 7 6 5 3 0 0 -0 -1 3 6 3 -0 1 2 2 1 1